"TOA5","AWS1","CR1000","7964","CR1000.Std.14","CPU:AWS1_114.CR1","64363","TBL110"
"TIMESTAMP","RECORD","Wind_spd_WVc(1)","Wind_spd_WVc(2)","Air_Temp_Avg","Humidity_Avg","SW_upper_Wm2_Avg","Rain_Tot","Press_Avg","Issui_Tot","Depth_cm","SR50A_Raw","Quality","Ground_Temp_Avg(1)","Ground_Temp_Avg(2)","SW_lower_Wm2_Avg","Albedo_Avg","SWC_per(1)","SWC_per(2)","Period(1)","Period(2)"
"TS","RN","","","","","","","","","","","","","","","","","","",""
"","","WVc","WVc","Avg","Avg","Avg","Tot","Avg","Tot","Smp","Smp","Smp","Avg","Avg","Avg","Avg","Smp","Smp","Smp","Smp"
"2018-01-09 00:00:00",322477,0.579,80.7,5.172,100,0.1139936,0,851.4036,0,61.49,2.542,340,1.617,2.399,0.003790011,0.008,53.45,60.68,34.14,35.83
"2018-01-09 00:10:00",322478,0.937,121.3,5.05,100,0.03930787,0.5,851.0012,0.5,60.65,2.55,219,1.599,2.394,0.007580052,0.016,53.5,60.74,34.15,35.85
"2018-01-09 00:20:00",322479,0.621,128.1,4.851,100,0.03537729,0,850.4979,0,60.28,2.555,272,1.588,2.397,0.01516012,0.032,53.56,60.86,34.17,35.88
"2018-01-09 00:30:00",322480,0.729,34.82,5.174,100,0.2948146,0.5,850.8749,0.5,59.28,2.562,200,1.594,2.399,0.03411112,0.064,53.61,61.04,34.18,35.92
"2018-01-09 00:40:00",322481,0.558,49.66,5.032,100,0.09040895,0.5,850.8117,0.5,58.59,2.571,193,1.589,2.399,0,0,53.73,61.1,34.21,35.93
"2018-01-09 00:50:00",322482,0.56,55.58,4.987,100,0.2751587,0,850.7316,0,58.43,2.573,202,1.579,2.398,0,0,53.78,61.28,34.22,35.97
"2018-01-09 01:00:00",322483,0.564,81.6,4.903,100,0.08647658,0.5,850.3841,0,58.59,2.572,211,1.568,2.392,0,0,53.84,61.46,34.23,36.01
"2018-01-09 01:10:00",322484,0.672,94.9,4.847,100,0.08254473,0,849.8744,0.5,58.61,2.571,221,1.575,2.389,0.04547932,0.08,53.9,61.58,34.25,36.04
"2018-01-09 01:20:00",322485,0.728,49.49,5.186,100,0.310528,0.5,849.9755,0.5,58.15,2.573,272,1.584,2.39,0.03031981,0.04,53.95,61.76,34.26,36.08
"2018-01-09 01:30:00",322486,0.607,18.3,5.382,100,0.3341175,0.5,850.0176,0,57.44,2.581,259,1.575,2.395,0,0,54.07,61.88,34.29,36.11
"2018-01-09 01:40:00",322487,0.514,71.95,5.054,100,0.04716821,0.5,849.708,0.5,57.56,2.581,279,1.561,2.391,0,0,54.12,62,34.3,36.13
"2018-01-09 01:50:00",322488,0.485,30.38,4.97,100,0.2436946,0.5,849.5058,0.5,56.54,2.59,226,1.559,2.381,0,0,54.18,62.06,34.32,36.15
"2018-01-09 02:00:00",322489,0.642,48.05,4.981,100,0.2279716,0,849.5543,0,55.69,2.6,256,1.557,2.379,0,0,54.29,62.18,34.34,36.17
"2018-01-09 02:10:00",322490,0.275,312.6,4.274,100,0.031445,0.5,849.7375,1,57.51,2.586,297,1.551,2.384,0,0,54.35,62.24,34.36,36.19
"2018-01-09 02:20:00",322491,0.594,26.41,4.22,100,0.3105308,0.5,849.9587,0,57.1,2.587,252,1.56,2.401,0.03790022,0.04,54.46,62.3,34.38,36.2
"2018-01-09 02:30:00",322492,0.85,54.43,4.701,100,0.3655616,0.5,849.9714,0.5,56.23,2.596,211,1.565,2.393,0.03411017,0.04,54.52,62.42,34.4,36.23
"2018-01-09 02:40:00",322493,0.684,78.3,4.417,100,0,0,849.8997,0,56.35,2.596,208,1.568,2.395,0,0,54.58,62.48,34.41,36.24
"2018-01-09 02:50:00",322494,0.5,98.3,4.31,100,0.1218592,0,849.7775,0,55.12,2.608,200,1.568,2.397,0,0,54.63,62.54,34.42,36.25
"2018-01-09 03:00:00",322495,0.598,56.21,4.28,100,0.06289431,0,849.5543,0,54.86,2.611,270,1.565,2.41,0,0,54.63,62.54,34.42,36.25
"2018-01-09 03:10:00",322496,0.761,58.75,4.305,100,0.2437097,0,849.4637,0,55.55,2.605,217,1.564,2.396,0,0,54.69,62.6,34.44,36.27
"2018-01-09 03:20:00",322497,0.405,35.48,4.061,100,0.1139973,0.5,849.0046,0,55.16,2.609,203,1.574,2.401,0,0,54.69,62.66,34.44,36.28
"2018-01-09 03:30:00",322498,0.625,70.13,4.153,100,0.2673014,0,849.0972,0.5,54.84,2.612,210,1.557,2.414,0,0,54.75,62.72,34.45,36.3
"2018-01-09 03:40:00",322499,0.472,76.54,4.137,100,0.1493755,0,848.8192,0,53.87,2.622,240,1.552,2.394,0,0,54.8,62.78,34.46,36.31
"2018-01-09 03:50:00",322500,0.568,84.9,3.959,100,0,0,848.7076,0,54.07,2.621,212,1.505,2.397,0,0,54.75,62.84,34.45,36.32
"2018-01-09 04:00:00",322501,0.598,105.4,3.857,100,0.03537936,0,848.558,0,54.7,2.615,208,1.505,2.375,0,0,54.8,62.84,34.46,36.32
"2018-01-09 04:10:00",322502,0.699,49.3,3.746,100,0.01965558,0,848.6107,0,54.44,2.62,193,1.51,2.368,0,0,54.8,62.9,34.46,36.34
"2018-01-09 04:20:00",322503,0.584,33.14,3.454,100,0.05503666,0,848.5833,0,54.64,2.618,198,1.515,2.344,0,0,54.8,62.9,34.46,36.34
"2018-01-09 04:30:00",322504,0.584,58.33,3.634,100,0.2004901,0,848.3537,0,54.03,2.623,209,1.514,2.31,0,0,54.8,62.96,34.46,36.35
"2018-01-09 04:40:00",322505,0.611,59.14,3.535,100,0.007862427,0,848.2484,0,53.63,2.628,247,1.518,2.296,0,0,54.8,62.96,34.46,36.35
"2018-01-09 04:50:00",322506,0.576,41.43,3.499,100,0.1100745,0,848.2084,0,53.63,2.628,222,1.52,2.295,0,0,54.75,62.96,34.45,36.35
"2018-01-09 05:00:00",322507,0.344,41.65,3.204,100,0,0,847.9241,0,53.53,2.629,239,1.543,2.297,0,0,54.8,62.96,34.46,36.35
"2018-01-09 05:10:00",322508,0.608,38.36,3.284,100,0,0,848.501,0,54.57,2.619,277,1.566,2.304,0,0,54.75,62.96,34.45,36.35
"2018-01-09 05:20:00",322509,0.355,354.6,2.76,100,0,0,848.6043,0,54.89,2.62,319,1.577,2.303,0,0,54.75,63.02,34.45,36.36
"2018-01-09 05:30:00",322510,0.525,19.78,2.377,100,0.007862558,0,848.5164,0,55.63,2.613,369,1.603,2.299,0,0,54.75,63.02,34.45,36.36
"2018-01-09 05:40:00",322511,0.372,355.9,2.163,100,0,0,848.5455,0,54.6,2.624,251,1.61,2.304,0,0,54.69,62.96,34.44,36.35
"2018-01-09 05:50:00",322512,0.128,4.041,2.045,100,0,0,848.3516,0,54.34,2.627,213,1.614,2.31,0,0,54.75,63.02,34.45,36.36
"2018-01-09 06:00:00",322513,0.241,356,1.935,100,0,0,848.3388,0,54.26,2.629,236,1.599,2.328,0,0,54.75,63.02,34.45,36.36
"2018-01-09 06:10:00",322514,0.09,304.7,1.591,100,0,0,848.3865,0,54.65,2.626,242,1.578,2.367,0,0,54.69,62.96,34.44,36.35
"2018-01-09 06:20:00",322515,0.212,38.23,1.498,100,0,0,848.5911,0,54.01,2.633,222,1.533,2.395,0,0,54.69,62.96,34.44,36.35
"2018-01-09 06:30:00",322516,0.122,33.26,1.463,100,0,0,849.0697,0,53.95,2.634,254,1.498,2.406,0.003790833,0,54.69,62.96,34.44,36.35
"2018-01-09 06:40:00",322517,0.065,142.6,1.335,100,0,0,849.4467,0,54.13,2.632,231,1.481,2.406,0.1061434,0,54.75,62.9,34.45,36.34
"2018-01-09 06:50:00",322518,0.021,292.6,1.305,100,0,0,848.8231,0.5,54.09,2.633,222,1.459,2.406,0.2729402,0,54.69,62.9,34.44,36.34
"2018-01-09 07:00:00",322519,0.059,251.9,1.189,100,0,0.5,848.7918,0,54.41,2.63,240,1.459,2.406,0.07202589,0,54.63,62.9,34.42,36.34
"2018-01-09 07:10:00",322520,0.274,272.2,0.995,100,0.01572651,0,848.6497,0,54.15,2.634,251,1.458,2.405,0.4207829,0.129,54.63,62.9,34.42,36.34
"2018-01-09 07:20:00",322521,0.144,270.9,0.835,100,0.1769232,0,848.7494,0,54.06,2.636,237,1.457,2.406,0.5534621,0.916,54.63,62.96,34.42,36.35
"2018-01-09 07:30:00",322522,0.555,15.65,0.568,100,0.2516241,0,848.7537,0.5,54.13,2.637,211,1.457,2.406,1.205486,0.311,54.63,62.9,34.42,36.34
"2018-01-09 07:40:00",322523,0.656,277.8,0.17,100,1.922565,0.5,848.8189,0,54.09,2.639,256,1.457,2.406,1.341956,0.705,54.63,62.9,34.42,36.34
"2018-01-09 07:50:00",322524,0,0,0.127,100,1.210941,0,848.7778,0.5,54.09,2.639,248,1.457,2.403,1.26993,1.081,54.58,62.9,34.41,36.34
"2018-01-09 08:00:00",322525,0,0,0.012,100,0.727351,0,848.5294,0,318,0,0,1.479,2.403,1.213068,1.766,54.58,62.9,34.41,36.34
"2018-01-09 08:10:00",322526,0,0,0.001,100,2.77966,0.5,848.6537,0,54.27,2.637,430,1.49,2.376,3.468615,1.372,54.58,62.84,34.41,36.32
"2018-01-09 08:20:00",322527,0,0,0.038,100,5.213337,0,849.1173,0,52.89,2.651,346,1.498,2.34,5.750699,1.107,54.58,62.84,34.41,36.32
"2018-01-09 08:30:00",322528,0,0,-0.011,100,27.87523,0,849.0773,0,52.43,2.656,312,1.507,2.305,29.23872,1.061,54.52,62.84,34.4,36.32
"2018-01-09 08:40:00",322529,0.183,91.6,0.061,100,53.04944,0,848.7887,0,52.01,2.659,278,1.504,2.299,52.77223,0.994,54.58,62.84,34.41,36.32
"2018-01-09 08:50:00",322530,0.443,119.7,0.153,100,47.31319,0,848.8097,0,52.41,2.655,271,1.502,2.286,47.88964,1.01,54.52,62.84,34.4,36.32
"2018-01-09 09:00:00",322531,0.731,75.24,0.04,100,45.50858,0,848.5716,0,51.99,2.66,231,1.495,2.264,45.2967,0.998,54.58,62.84,34.41,36.32
"2018-01-09 09:10:00",322532,0.506,111.6,0.026,100,40.95969,0,848.5,0,51.87,2.661,232,1.498,2.26,41.22155,1.02,54.52,62.84,34.4,36.32
"2018-01-09 09:20:00",322533,0.167,35.97,0.018,100,39.00567,0,848.3357,0,51.65,2.663,254,1.512,2.252,41.57031,1.072,54.52,62.78,34.4,36.31
"2018-01-09 09:30:00",322534,0.591,37.55,0.008,100,49.75474,0,848.5358,0,52.07,2.659,230,1.498,2.256,49.75852,0.996,54.52,62.78,34.4,36.31
"2018-01-09 09:40:00",322535,0.873,55.79,0.16,98,82.56809,0,848.3947,0,51.81,2.661,220,1.483,2.259,82.1133,0.997,54.46,62.78,34.38,36.31
"2018-01-09 09:50:00",322536,0.375,37.28,0.051,95.8,34.50002,0,848.5463,0,51.95,2.66,227,1.483,2.253,36.00916,1.042,54.46,62.78,34.38,36.31
"2018-01-09 10:00:00",322537,0.599,53.21,0.008,97.5,36.33609,0,848.2893,0,52.03,2.66,229,1.487,2.256,38.40875,1.056,54.46,62.78,34.38,36.31
"2018-01-09 10:10:00",322538,0.417,27.01,-0.185,96.7,32.16464,0,848.4537,0,51.78,2.663,218,1.497,2.248,34.58001,1.074,54.46,62.78,34.38,36.31
"2018-01-09 10:20:00",322539,0.654,60.4,-0.362,97.9,35.03473,0,848.3125,0,52.24,2.66,211,1.507,2.246,37.73019,1.076,54.41,62.78,34.37,36.31
"2018-01-09 10:30:00",322540,0.647,28.87,-0.469,99.6,69.16911,0,848.3925,0,52.36,2.658,205,1.511,2.238,74.44065,1.077,54.41,62.72,34.37,36.3
"2018-01-09 10:40:00",322541,0.843,63.22,-0.376,99.8,75.13339,0,848.2914,0,52.84,2.654,190,1.491,2.243,80.63109,1.071,54.41,62.72,34.37,36.3
"2018-01-09 10:50:00",322542,0.628,32.58,-0.502,99.7,45.8349,0,848.2113,0,53.73,2.646,201,1.484,2.243,48.94349,1.073,54.41,62.72,34.37,36.3
"2018-01-09 11:00:00",322543,0.563,48.52,-0.625,100,78.50672,0,848.0491,0,53.13,2.652,177,1.494,2.243,86.378,1.1,54.41,62.72,34.37,36.3
"2018-01-09 11:10:00",322544,0.368,75.94,-0.727,98.5,22.04463,0,847.969,0,53.33,2.651,192,1.491,2.239,22.40005,1.01,54.35,62.72,34.36,36.3
"2018-01-09 11:20:00",322545,0.107,315.4,-0.807,99.7,53.11628,0,848.0302,0,53.33,2.65,193,1.505,2.239,57.46529,1.059,54.35,62.72,34.36,36.3
"2018-01-09 11:30:00",322546,0.47,319.2,-0.973,100,30.69421,0,847.8173,0.5,52.54,2.66,178,1.505,2.241,33.0106,1.067,54.41,62.66,34.37,36.28
"2018-01-09 11:40:00",322547,0.471,344.4,-1.027,100,123.7873,0.5,847.691,0,52.57,2.658,188,1.507,2.243,137.2017,1.104,54.35,62.66,34.36,36.28
"2018-01-09 11:50:00",322548,0.483,40.66,-0.908,95.3,73.14399,0,847.5561,0,52.5,2.66,197,1.462,2.236,78.26182,1.07,54.35,62.66,34.36,36.28
"2018-01-09 12:00:00",322549,0.259,34.8,-1.243,93.5,38.34909,0,847.4824,0,52.51,2.662,179,1.486,2.235,39.75071,1.034,54.29,62.66,34.34,36.28
"2018-01-09 12:10:00",322550,0.357,46.34,-1.36,93.1,33.60361,0,847.2653,0,52.47,2.662,197,1.504,2.249,34.52314,1.024,54.29,62.66,34.34,36.28
"2018-01-09 12:20:00",322551,0.239,135.6,-1.226,92.7,50.40739,0,847.065,0,52.38,2.662,196,1.509,2.27,52.28321,1.033,54.35,62.66,34.36,36.28
"2018-01-09 12:30:00",322552,0.57,40.42,-1.275,89.7,65.56774,0,847.0445,0,52.27,2.664,193,1.51,2.269,70.31622,1.065,54.29,62.6,34.34,36.27
"2018-01-09 12:40:00",322553,0.535,98.4,-1.507,89,38.47883,0,847.1154,0,52.05,2.667,187,1.512,2.286,37.66954,0.976,54.29,62.66,34.34,36.28
"2018-01-09 12:50:00",322554,0.432,138,-1.625,89.5,88.75647,0,847.2505,0,52.03,2.667,202,1.517,2.304,93.80424,1.043,54.24,62.6,34.33,36.27
"2018-01-09 13:00:00",322555,0.56,128.6,-1.254,89.9,138.2006,0,847.2758,0,51.74,2.668,201,1.499,2.272,146.023,1.059,54.29,62.6,34.34,36.27
"2018-01-09 13:10:00",322556,0.524,346,-1.306,85,92.68024,0,847.2523,0,51.78,2.671,214,1.486,2.243,93.14464,0.998,54.24,62.6,34.33,36.27
"2018-01-09 13:20:00",322557,0.424,337.8,-1.639,84.2,120.6066,0,847.2712,0,51.79,2.67,202,1.483,2.245,145.1966,1.194,54.29,62.6,34.34,36.27
"2018-01-09 13:30:00",322558,0.602,351.4,-1.779,83.8,86.94006,0,847.1663,0,51.6,2.673,213,1.464,2.236,96.90894,1.12,54.24,62.54,34.33,36.25
"2018-01-09 13:40:00",322559,0.947,47.89,-1.828,83.9,72.46381,0,847.2123,0,51.51,2.675,217,1.471,2.239,73.68628,1.015,54.18,62.54,34.32,36.25
"2018-01-09 13:50:00",322560,0.541,37.73,-2.273,84.8,43.81012,0,847.315,0,51.51,2.676,218,1.499,2.272,42.75305,0.972,54.24,62.54,34.33,36.25
"2018-01-09 14:00:00",322561,0.352,55.04,-2.281,86.8,39.70943,0,847.3458,0,51.61,2.675,221,1.509,2.289,39.12143,0.971,54.24,62.54,34.33,36.25
"2018-01-09 14:10:00",322562,0.502,43.99,-2.358,88,39.95319,0,847.4808,0,51.52,2.677,210,1.507,2.317,39.43986,0.974,54.18,62.6,34.32,36.27
"2018-01-09 14:20:00",322563,0.582,66.11,-2.487,87.6,41.94653,0,847.6198,0,52.86,2.664,274,1.503,2.319,42.7303,1.017,54.18,62.54,34.32,36.25
"2018-01-09 14:30:00",322564,0.313,35.96,-2.479,88.3,61.79731,0,847.7542,0,52.85,2.663,268,1.507,2.319,65.10003,1.053,54.18,62.54,34.32,36.25
"2018-01-09 14:40:00",322565,0.451,78.17,-2.369,88.1,52.35354,0,847.7531,0,53.61,2.656,318,1.503,2.319,53.33327,1.018,54.18,62.48,34.32,36.24
"2018-01-09 14:50:00",322566,0.707,36.5,-2.418,87.5,69.33424,0,848.0101,0,53.29,2.659,277,1.512,2.319,72.20786,1.039,54.12,62.54,34.3,36.25
"2018-01-09 15:00:00",322567,0.597,53.89,-2.577,84.5,51.98397,0,847.9962,0,53.84,2.655,327,1.526,2.319,53.54177,1.027,54.12,62.54,34.3,36.25
"2018-01-09 15:10:00",322568,0.938,50.1,-2.8,83.7,38.79729,0,848.322,0,53.27,2.662,280,1.526,2.319,41.55894,1.071,54.12,62.54,34.3,36.25
"2018-01-09 15:20:00",322569,0.555,47.08,-3.331,84.7,25.53198,0,848.3607,0,53.05,2.667,194,1.484,2.319,27.49494,1.077,54.12,62.48,34.3,36.24
"2018-01-09 15:30:00",322570,0.334,186.1,-3.524,91.7,24.81643,0,848.7402,0,53.27,2.665,193,1.437,2.319,27.50252,1.101,54.12,62.48,34.3,36.24
"2018-01-09 15:40:00",322571,0.573,72.26,-3.695,95.4,10.08462,0,849.071,0,52.88,2.67,194,1.392,2.319,11.86911,1.164,54.07,62.48,34.29,36.24
"2018-01-09 15:50:00",322572,0.392,303.7,-3.83,98.3,18.32924,0,849.29,0,53,2.669,197,1.403,2.314,22.29012,1.215,54.07,62.42,34.29,36.23
"2018-01-09 16:00:00",322573,0.307,1.878,-3.945,99,8.496245,0,849.465,0.5,53.74,2.663,211,1.414,2.289,10.62951,1.233,54.07,62.42,34.29,36.23
"2018-01-09 16:10:00",322574,0.462,188.4,-4.249,98.8,5.567183,0,849.6525,0,52.88,2.673,205,1.441,2.248,6.759061,1.208,54.07,62.42,34.29,36.23
"2018-01-09 16:20:00",322575,0.357,227.4,-4.388,99.4,4.898807,0,849.7768,0,54.33,2.659,198,1.454,2.225,6.694617,1.37,54.12,62.42,34.3,36.23
"2018-01-09 16:30:00",322576,0.164,308.8,-4.569,98.7,3.050942,0,849.7642,0,53.65,2.666,203,1.455,2.23,4.901551,1.657,54.01,62.42,34.27,36.23
"2018-01-09 16:40:00",322577,0.66,243.8,-4.909,97.3,1.580514,0,850.0128,0.5,53.58,2.67,209,1.455,2.233,1.664177,1.078,54.07,62.36,34.29,36.21
"2018-01-09 16:50:00",322578,0.399,297.9,-5.331,96.9,0.7470091,0,850.1729,0.5,55.66,2.649,251,1.455,2.233,0.5117629,0.953,54.07,62.36,34.29,36.21
"2018-01-09 17:00:00",322579,0.475,249.9,-5.349,97,0.3459935,0,850.1223,0.5,56.33,2.643,209,1.462,2.24,0.2160795,0.787,54.01,62.36,34.27,36.21
"2018-01-09 17:10:00",322580,0.196,125.9,-5.418,97.1,0.04325168,0,850.3183,0.5,56.47,2.641,204,1.486,2.266,0.03412218,0,54.01,62.36,34.27,36.21
"2018-01-09 17:20:00",322581,0.469,285.6,-5.508,96.5,0.003932433,0,850.3279,0,57.04,2.637,221,1.501,2.29,0,0,54.01,62.36,34.27,36.21
"2018-01-09 17:30:00",322582,0.179,295.5,-5.498,96.9,0,0.5,850.6289,0,56.83,2.638,217,1.473,2.327,0.05308784,0,54.01,62.36,34.27,36.21
"2018-01-09 17:40:00",322583,0.275,301.7,-5.505,97.5,0,0.5,850.8294,0,56.58,2.642,193,1.468,2.37,0.05688071,0,53.95,62.36,34.26,36.21
"2018-01-09 17:50:00",322584,0.47,284.9,-5.8,96.9,0.1494522,0,851.0323,0.5,56.74,2.641,214,1.491,2.391,0,0,53.95,62.3,34.26,36.2
"2018-01-09 18:00:00",322585,1.07,304.6,-5.994,95.8,0.3814977,0.5,851.1415,0,55.23,2.658,190,1.516,2.354,0,0,53.9,62.3,34.25,36.2
"2018-01-09 18:10:00",322586,0.937,320.7,-6.274,95,0.4483584,0,851.3,0,57.19,2.639,179,1.501,2.325,0,0,53.9,62.24,34.25,36.19
"2018-01-09 18:20:00",322587,1.317,320.3,-6.469,94.6,0.4129618,0,851.5319,0,57.08,2.641,196,1.477,2.321,0,0,53.9,62.3,34.25,36.2
"2018-01-09 18:30:00",322588,1.036,332.7,-6.562,93.9,0.04719562,0,851.7343,0,56.93,2.643,188,1.46,2.321,0,0,53.9,62.3,34.25,36.2
"2018-01-09 18:40:00",322589,1.258,325.7,-6.683,93.1,0,0.5,851.8123,0.5,57.24,2.64,210,1.457,2.314,0,0,53.9,62.3,34.25,36.2
"2018-01-09 18:50:00",322590,1.144,311.5,-6.669,92.4,0,0,852.0461,0,57.22,2.64,198,1.457,2.277,0,0,53.9,62.24,34.25,36.19
"2018-01-09 19:00:00",322591,1.413,319.8,-6.691,91.3,0,0,852.1453,0,56.69,2.646,178,1.457,2.24,0.00379213,0,53.9,62.24,34.25,36.19
"2018-01-09 19:10:00",322592,0.588,326.9,-6.649,93,0,0.5,852.4951,0,56.14,2.651,193,1.458,2.238,0.1441009,0,53.9,62.24,34.25,36.19
"2018-01-09 19:20:00",322593,0.428,310.5,-6.616,94.3,0,0,852.5372,0,55.25,2.66,192,1.467,2.236,0.2123593,0,53.84,62.18,34.23,36.17
"2018-01-09 19:30:00",322594,0.299,255.4,-6.668,94.6,0,0,852.5078,0,55.84,2.654,187,1.485,2.236,0.09480325,0,53.84,62.24,34.23,36.19
"2018-01-09 19:40:00",322595,0.395,281.1,-6.698,94.8,0,0,852.5162,0.5,57.36,2.639,197,1.489,2.236,0.03033704,0,53.78,62.24,34.22,36.19
"2018-01-09 19:50:00",322596,0.463,255.1,-6.7,94.9,0,0,852.7501,0,58.31,2.629,190,1.494,2.239,0.05308982,0,53.84,62.18,34.23,36.17
"2018-01-09 20:00:00",322597,0.329,247.2,-6.624,95.2,0,0.5,852.6974,0,58.51,2.627,194,1.499,2.243,0.1251403,0,53.84,62.18,34.23,36.17
"2018-01-09 20:10:00",322598,0.155,235.2,-6.591,95.4,0,0,852.807,0,58.56,2.626,195,1.501,2.251,0.1706469,0,53.78,62.18,34.22,36.17
"2018-01-09 20:20:00",322599,0.136,23.03,-6.523,95.5,0,0.5,852.9167,0,56.7,2.645,211,1.509,2.272,0.1971976,0,53.84,62.18,34.23,36.17
"2018-01-09 20:30:00",322600,0.262,44.3,-6.535,96.3,0.0511321,0,852.7101,0,57.55,2.637,235,1.516,2.271,0.1479013,0,53.78,62.18,34.22,36.17
"2018-01-09 20:40:00",322601,0.273,99.5,-6.708,96.8,0,0,852.8113,0,57.49,2.638,217,1.524,2.293,0,0,53.78,62.12,34.22,36.16
"2018-01-09 20:50:00",322602,0.023,57.16,-6.838,95.7,0,0,853.0031,0,57.47,2.639,238,1.53,2.31,0,0,53.73,62.12,34.21,36.16
"2018-01-09 21:00:00",322603,0.035,62.86,-7.13,94.4,0,0.5,853.1274,0,57.74,2.638,212,1.541,2.324,0,0,53.78,62.12,34.22,36.16
"2018-01-09 21:10:00",322604,0.096,85.3,-7.258,93.3,0,0,853.1506,0.5,57.3,2.643,205,1.569,2.332,0,0,53.73,62.06,34.21,36.15
"2018-01-09 21:20:00",322605,0.084,36.22,-7.504,92.2,0,0,852.9651,0,57.4,2.643,205,1.549,2.292,0,0,53.73,62.12,34.21,36.16
"2018-01-09 21:30:00",322606,0.061,15.03,-7.729,91.5,0,0,853.0795,0,57.25,2.646,202,1.541,2.304,0,0,53.73,62.06,34.21,36.15
"2018-01-09 21:40:00",322607,0,0,-8.1,91.4,0,0,853.0345,0,57.48,2.646,206,1.539,2.316,0,0,53.73,62.06,34.21,36.15
"2018-01-09 21:50:00",322608,0.104,239.9,-8.31,91.4,0,0,852.975,0,57.44,2.646,204,1.528,2.345,0,0,53.67,62.06,34.19,36.15
"2018-01-09 22:00:00",322609,0.128,347.4,-8.14,90.9,0,0,852.9926,0,57.24,2.648,208,1.518,2.347,0.2200125,0,53.67,62,34.19,36.13
"2018-01-09 22:10:00",322610,0.065,100.8,-8.36,90.4,0,0,853.0905,0,57.29,2.647,187,1.51,2.352,0.3414051,0,53.73,62,34.21,36.13
"2018-01-09 22:20:00",322611,0.009,75.99,-7.992,90.8,0,0,853.2599,0,57.14,2.647,202,1.487,2.323,0.8762785,0,53.67,62,34.19,36.13
"2018-01-09 22:30:00",322612,0.088,75.98,-7.913,90.8,0,0,853.2606,0,57.21,2.647,202,1.485,2.325,0.8914546,0,53.67,62,34.19,36.13
"2018-01-09 22:40:00",322613,0.027,75.94,-7.699,91.4,0,0,853.1786,0,56.99,2.646,202,1.474,2.301,0.7359247,0,53.67,62,34.19,36.13
"2018-01-09 22:50:00",322614,0.029,105.5,-7.446,90.5,0,0,853.2608,0,57.25,2.644,192,1.477,2.302,0.754892,0,53.67,62,34.19,36.13
"2018-01-09 23:00:00",322615,0.228,103.5,-7.379,90.1,0,0,853.4654,0,57,2.645,201,1.472,2.292,0.6979905,0,53.67,61.94,34.19,36.12
"2018-01-09 23:10:00",322616,0.315,102.1,-7.212,88.9,0,0,853.4252,0,56.93,2.646,200,1.477,2.305,0.3945164,0,53.61,61.94,34.18,36.12
"2018-01-09 23:20:00",322617,0.385,108.6,-7.196,88.7,0,0,853.5075,0,56.83,2.647,196,1.475,2.302,0.2276056,0,53.61,61.94,34.18,36.12
"2018-01-09 23:30:00",322618,0.138,76.97,-7.157,89.8,0,0,853.5497,0,56.88,2.646,201,1.488,2.306,0.2276056,0,53.61,61.94,34.18,36.12
"2018-01-09 23:40:00",322619,0.206,49.52,-7.062,90.1,0,0,853.5138,0,56.74,2.647,196,1.505,2.325,0.2465727,0,53.61,61.94,34.18,36.12
"2018-01-09 23:50:00",322620,0.186,90.1,-7.03,89.3,0,0,853.5138,0,56.74,2.647,195,1.5,2.311,0.2276056,0,53.61,61.94,34.18,36.12
